Theta_e
292 288 285 288 287 286 286 285 284 286 290 289 288 288 291 293 291 291 291 291 292 293 297 296 297 298 306 310 312 316 320 325 326 326 326 328 328 329 330 331 330 329 329 326
289 286 290 291 290 289 287 284 284 286 290 289 287 288 290 291 292 292 292 292 291 291 293 294 295 294 297 305 311 314 318 322 325 327 328 328 327 329 331 331 331 331 330 328
286 288 292 291 288 288 285 284 284 285 286 285 284 283 285 288 289 292 291 291 291 292 292 293 293 293 294 296 303 311 316 319 323 326 323 312 313 311 317 320 327 329 330 329
288 291 290 288 288 288 284 289 288 286 283 279 283 277 283 286 288 289 290 288 290 292 292 293 295 295 294 294 296 304 310 316 320 323 322 323 323 322 321 325 323 326 328 328
287 289 288 287 288 289 287 289 286 285 283 281 281 279 283 284 285 287 290 291 291 292 293 294 294 296 296 296 295 296 306 312 316 320 323 322 322 324 316 313 314 314 320 324
288 291 290 289 290 289 291 288 286 284 281 276 280 278 279 282 284 286 288 291 293 293 295 296 296 296 296 295 296 298 302 307 312 315 317 318 320 316 308 306 310 309 314 319
286 287 289 291 288 290 286 283 277 276 275 275 279 278 282 284 287 287 289 292 293 294 295 295 296 296 296 297 296 298 299 301 306 310 311 312 315 313 309 307 309 304 305 309
282 281 289 291 289 287 285 283 278 272 272 275 280 278 283 288 289 289 292 292 293 293 294 294 295 295 296 297 297 297 298 298 299 302 306 307 308 308 309 306 305 307 307 309
282 282 288 289 290 290 286 282 285 279 269 274 278 281 287 288 289 291 292 292 292 293 294 295 295 295 295 296 296 296 297 298 298 299 300 301 303 304 305 304 303 306 304 303
288 283 286 288 290 288 287 289 282 279 271 270 275 277 281 286 288 290 290 291 292 294 295 296 296 296 296 295 295 296 296 296 297 297 298 299 299 301 302 302 302 302 302 300
289 287 283 287 285 285 285 284 284 284 280 275 272 278 284 288 290 290 291 292 292 293 294 294 295 296 296 296 296 295 296 296 296 297 297 297 298 298 299 300 301 300 300 298
290 286 281 283 286 287 285 285 285 280 277 278 278 279 289 290 290 291 291 292 292 292 293 293 294 294 295 294 294 294 294 294 295 296 297 297 297 297 297 298 299 298 298 297
291 285 278 283 284 286 283 285 285 284 281 276 276 279 289 289 291 292 292 292 291 293 294 294 294 294 294 294 293 293 294 294 294 294 294 295 295 296 296 296 296 296 296 295
295 287 284 281 282 286 284 287 287 285 278 279 280 282 285 287 290 292 291 291 292 293 293 293 294 294 294 294 294 293 294 293 292 292 292 293 293 294 295 295 294 294 294 293
292 285 287 287 288 288 287 286 287 285 283 281 283 283 287 291 291 290 291 291 291 291 292 293 293 293 292 292 293 293 293 292 290 290 290 290 291 291 291 290 290 289 289 291
292 284 286 283 285 286 284 285 284 285 285 286 286 286 292 289 291 289 290 290 290 290 291 292 292 292 292 291 291 292 291 289 288 287 287 288 287 286 286 286 287 287 287 287
287 283 281 278 281 282 278 282 284 284 286 286 282 286 288 288 289 288 289 289 289 290 290 291 291 292 292 291 290 290 289 287 286 285 285 285 285 285 285 285 285 285 285 286
283 281 280 275 275 272 280 281 283 285 285 287 286 285 287 287 287 288 289 289 288 289 289 290 290 290 291 290 289 288 286 285 285 285 284 283 283 283 284 284 284 284 283 283
286 282 275 275 266 275 279 280 279 280 280 284 284 284 284 285 283 283 289 289 288 288 289 289 290 289 289 288 288 285 284 283 283 284 284 283 282 282 282 282 283 283 282 281
285 285 279 268 266 265 275 280 282 281 273 281 283 284 283 283 279 281 288 287 287 288 287 287 287 287 287 287 285 283 283 282 282 283 283 282 281 280 280 281 281 279 276 280
281 280 279 270 270 272 279 280 282 271 275 279 285 285 284 282 284 285 286 286 287 286 286 286 286 285 285 285 283 281 281 281 282 280 280 279 279 278 279 279 276 275 276 277
279 276 275 276 274 271 281 280 277 280 282 284 284 284 284 284 284 284 284 284 284 283 284 284 283 283 283 282 280 280 279 281 278 278 277 277 277 277 279 275 274 273 274 274
274 278 274 277 277 282 282 282 284 284 283 283 283 285 283 282 282 283 283 283 283 283 283 284 281 280 280 278 276 277 279 277 278 276 275 276 276 276 276 272 274 278 279 280
276 279 276 277 280 281 282 283 284 285 285 285 284 282 282 281 281 281 282 282 282 280 279 277 276 277 278 278 275 274 275 277 278 277 276 276 276 276 274 275 275 276 279 279
276 278 275 275 278 280 281 282 284 284 283 281 281 280 280 280 280 280 280 280 280 280 277 275 276 276 277 277 275 270 272 269 271 276 277 277 279 277 274 274 273 273 273 275
278 277 276 273 280 280 280 282 282 281 281 280 280 279 280 280 280 279 278 278 277 277 276 275 274 273 274 272 272 269 265 264 266 269 275 278 279 279 274 273 274 282 284 285
Wind_Speed
2 5 6 10 6 3 7 4 2 2 1 2 5 6 11 11 6 10 10 10 11 11 12 9 9 9 9 8 8 11 11 14 10 8 9 8 11 10 9 10 12 14 14 14
6 4 6 6 4 4 3 3 2 3 1 2 4 10 10 9 12 8 9 10 10 8 10 6 7 7 9 13 13 12 14 14 13 11 10 8 9 9 11 9 11 14 15 14
7 2 8 6 4 5 3 5 4 4 2 4 5 9 7 5 5 6 5 6 7 10 10 8 6 6 6 9 12 15 16 16 13 15 5 3 4 3 3 5 9 11 13 14
3 1 6 4 4 5 4 5 4 4 3 2 2 7 7 5 11 7 10 7 7 8 5 5 7 6 5 7 7 7 7 9 10 10 9 14 12 12 10 10 9 9 13 14
6 7 6 3 5 6 5 4 3 3 4 3 3 3 9 5 6 5 8 9 8 8 7 8 7 7 5 8 5 3 4 5 6 8 11 10 12 9 3 3 7 7 8 9
3 1 4 6 3 2 8 7 7 5 3 2 5 5 7 3 1 4 5 7 7 9 9 9 6 6 6 5 6 3 0 3 5 7 7 9 12 7 4 4 6 5 7 7
2 1 0 3 6 4 5 7 2 4 4 6 1 3 10 2 3 2 4 7 8 8 9 10 11 11 9 10 8 6 4 2 3 5 6 7 8 7 9 7 6 6 5 4
8 3 8 5 7 10 7 8 8 8 5 4 1 5 6 4 6 5 5 6 8 9 7 7 8 8 9 10 10 9 8 6 3 5 7 5 6 4 4 5 5 6 6 8
7 4 1 2 3 6 6 4 5 8 3 4 4 5 6 5 8 6 7 8 9 9 8 7 6 6 7 8 8 8 9 7 6 6 6 6 6 6 6 8 6 7 7 5
8 4 1 2 3 3 4 8 4 3 3 4 3 3 6 7 5 5 10 8 7 7 9 9 8 8 7 6 6 7 7 7 7 7 6 6 6 7 7 6 9 8 7 7
5 4 1 4 6 9 3 3 4 5 5 6 2 7 4 11 8 8 5 5 6 7 8 8 7 7 7 8 8 8 8 8 8 7 6 7 6 7 6 7 6 6 6 6
6 5 5 6 2 2 2 7 7 7 5 2 4 7 7 10 9 6 3 2 5 5 5 4 6 7 8 7 8 8 8 8 7 7 7 7 6 6 6 6 6 5 7 6
8 3 4 2 2 2 4 2 4 5 4 7 7 6 4 4 5 3 6 6 5 6 7 6 6 5 5 5 6 6 6 7 8 7 7 7 7 7 7 7 7 6 7 7
4 4 4 11 3 5 6 4 4 5 4 5 7 4 7 8 8 9 7 6 6 6 6 8 11 12 13 13 10 8 8 6 8 8 6 7 8 8 7 7 7 7 6 7
5 4 3 3 2 1 4 7 7 6 5 8 4 4 3 7 7 3 3 4 5 7 9 11 11 10 10 12 13 13 12 12 11 11 11 10 8 6 7 7 7 7 7 7
0 3 3 2 3 3 3 6 4 3 2 5 3 13 8 1 7 6 6 7 8 8 8 7 7 7 8 8 9 11 10 11 10 11 10 11 10 10 9 8 8 7 7 7
7 7 4 4 2 4 7 9 8 5 5 7 8 4 5 4 5 4 5 4 3 4 5 7 8 8 9 8 6 10 11 10 10 8 8 8 8 10 11 9 8 8 7 6
7 6 3 4 2 5 3 2 3 8 5 7 6 1 4 4 3 6 4 5 2 2 4 6 6 7 8 7 9 8 8 9 9 11 9 6 7 9 9 9 10 9 6 7
2 5 5 6 4 8 6 6 7 8 7 8 7 4 4 3 2 2 6 4 1 3 5 5 5 6 7 7 7 7 10 8 7 10 10 9 9 10 9 9 9 8 7 6
3 3 5 3 6 10 5 2 6 6 7 6 6 6 3 3 1 4 6 2 1 4 3 5 6 5 6 7 6 7 10 8 9 9 10 10 9 9 10 9 9 4 3 7
5 2 8 4 3 9 7 5 3 7 9 3 6 5 4 4 5 3 1 3 3 4 6 5 5 6 8 6 6 9 8 10 9 8 10 10 7 8 8 7 3 4 5 5
9 7 5 5 3 12 7 4 7 5 2 6 5 3 1 3 6 4 4 5 5 6 6 6 6 7 7 5 4 8 9 8 6 9 10 10 8 7 6 6 5 5 4 3
3 7 8 9 8 2 5 3 3 5 5 3 2 4 3 4 6 8 7 5 3 6 6 5 5 8 8 5 4 8 9 7 9 9 10 10 8 7 6 5 6 4 3 4
4 3 3 4 5 5 4 1 4 3 5 5 4 1 2 6 7 8 8 7 6 3 4 3 5 7 12 6 5 6 8 8 11 13 12 9 9 10 6 4 4 3 4 4
6 9 7 3 2 4 3 4 6 6 4 2 3 1 4 5 7 5 6 7 7 6 3 3 6 9 12 10 8 4 6 5 8 10 12 11 9 8 7 5 4 3 4 4
7 7 6 6 6 5 5 7 4 7 5 4 2 1 2 4 7 5 8 6 7 10 9 9 8 8 12 8 10 5 3 3 6 10 9 9 8 8 5 4 4 7 8 8
Wind_Direction
26 97 184 198 169 130 134 131 151 256 131 159 246 267 275 291 292 278 269 257 261 251 260 231 231 215 216 221 204 201 197 207 185 186 190 201 208 205 207 210 202 203 203 198
51 221 203 122 161 126 101 100 251 280 38 138 348 277 264 269 264 238 257 269 267 283 290 265 250 233 212 224 218 215 210 206 199 198 204 204 200 214 213 210 209 206 205 201
153 213 138 137 146 143 171 159 198 208 41 53 344 305 332 299 269 279 263 277 284 271 285 310 312 260 247 228 215 212 213 211 206 205 167 95 72 60 164 215 215 210 207 205
196 124 137 142 169 129 161 198 151 148 87 210 25 284 309 313 298 329 330 335 336 345 357 352 355 0 332 276 250 234 226 216 217 197 186 198 208 209 210 211 212 211 207 209
230 164 135 136 191 159 198 112 122 91 97 74 320 84 270 339 322 354 23 13 0 6 17 12 5 6 8 7 349 292 253 220 197 189 204 209 220 225 175 166 178 192 207 217
124 49 149 175 86 109 147 81 49 54 86 343 241 141 288 234 166 22 3 11 14 13 10 8 2 13 8 20 36 37 157 229 204 192 194 200 218 204 174 183 196 195 206 215
66 174 46 133 86 41 81 79 357 349 6 220 56 95 242 296 7 31 62 17 11 10 15 11 9 3 2 4 14 20 40 313 243 215 205 204 217 206 208 197 200 179 194 211
151 228 170 191 171 172 184 155 158 195 194 248 82 228 247 115 104 86 51 356 2 24 20 31 20 359 360 356 2 8 5 350 298 245 243 229 225 221 227 202 197 216 211 213
145 247 68 123 140 138 190 180 157 103 26 67 218 288 327 87 89 55 32 34 19 14 10 0 13 25 6 2 357 353 348 333 313 281 265 244 233 215 216 216 212 220 215 210
198 134 56 161 107 48 155 160 76 9 158 258 276 233 219 106 112 60 41 21 4 1 7 360 6 6 351 349 329 347 343 313 317 316 286 266 248 231 229 220 226 224 228 214
142 113 128 112 205 164 135 166 72 126 153 173 180 253 195 149 143 107 79 20 348 353 347 348 355 358 354 352 358 346 348 338 332 335 297 293 284 272 253 242 248 241 237 212
191 131 160 198 264 251 187 178 153 147 221 242 147 262 141 147 149 129 105 359 341 347 357 5 351 343 354 355 353 357 351 345 327 307 318 315 301 292 280 269 261 241 241 227
180 187 93 80 10 343 204 163 138 114 79 193 144 246 198 159 150 60 34 5 14 35 13 355 8 15 8 5 8 358 354 355 351 349 343 326 312 306 289 280 273 255 249 243
80 91 171 205 179 140 171 170 173 147 158 163 220 136 219 279 336 30 40 45 42 16 1 360 11 8 3 1 353 348 350 356 352 352 347 335 327 316 298 289 281 272 263 258
71 136 94 64 41 46 157 161 178 187 181 183 148 201 210 292 326 57 78 61 52 34 21 12 1 353 349 349 347 349 350 352 353 346 344 336 324 315 308 301 292 282 269 261
53 115 113 139 351 349 295 243 197 197 206 266 270 273 198 96 105 49 40 46 31 8 355 351 342 338 338 335 334 335 336 338 342 338 331 328 331 328 326 319 311 298 285 274
145 139 123 187 339 82 310 239 185 183 200 164 210 237 139 132 136 150 151 110 57 348 334 333 329 323 321 322 324 322 322 327 326 321 317 323 327 326 323 318 312 304 296 284
135 112 93 128 92 207 230 5 76 204 218 227 265 238 142 161 196 232 193 148 65 339 337 327 314 315 319 311 315 316 322 318 319 318 315 311 315 314 315 315 310 305 295 290
96 119 105 152 189 311 280 187 178 166 259 212 222 208 148 141 166 283 178 149 42 346 320 296 303 292 293 299 306 312 311 306 311 311 316 320 317 310 310 308 310 307 297 298
68 86 117 125 146 205 246 306 130 106 274 209 178 160 168 84 8 241 176 152 294 279 281 293 307 287 294 306 317 316 310 311 310 314 311 305 304 301 306 304 305 287 271 285
142 125 187 171 206 283 213 216 156 114 245 187 142 158 175 198 197 160 149 248 241 245 288 294 299 299 296 305 316 309 307 300 297 306 304 298 287 288 282 290 271 280 295 298
168 155 193 141 154 260 155 55 178 196 69 156 184 180 246 320 322 293 248 249 276 288 296 292 293 292 290 283 286 291 288 283 299 302 301 297 293 294 294 291 287 287 299 284
212 176 175 180 204 72 185 172 176 140 145 175 133 112 59 321 293 294 282 283 249 274 279 276 274 285 294 278 231 285 288 314 308 307 300 299 297 292 289 295 296 298 296 297
251 155 166 103 222 162 163 145 144 115 120 132 120 169 239 260 271 278 297 305 307 287 262 249 282 290 297 294 245 244 290 302 303 301 302 303 304 309 304 294 285 296 298 296
186 145 157 249 167 110 174 199 150 148 135 38 349 0 294 300 297 284 293 299 305 301 311 291 290 291 293 301 297 285 305 316 300 295 296 297 294 296 294 280 268 265 260 231
167 167 184 214 179 157 162 176 161 163 184 180 153 326 351 318 291 315 303 316 312 313 317 308 297 289 295 297 299 299 293 303 306 302 295 292 289 287 274 280 298 292 290 298